PDT,Max TemperatureF,Mean TemperatureF,Min TemperatureF,Max Dew PointF,MeanDew PointF,Min DewpointF,Max Humidity, Mean Humidity, Min Humidity, Max Sea Level PressureIn, Mean Sea Level PressureIn, Min Sea Level PressureIn, Max VisibilityMiles, Mean VisibilityMiles, Min VisibilityMiles, Max Wind SpeedMPH, Mean Wind SpeedMPH, Max Gust SpeedMPH,PrecipitationIn, CloudCover, Events, WindDirDegrees
2013-8-1,69,63,56,54,53,52,93,75,57,30.09,30.07,30.05,10,6,1,15,4,30,T,7,Rain,202
2013-8-2,66,62,58,56,55,54,93,83,72,30.15,30.11,30.08,9,5,1,10,2,22,0.02,7,Rain,234
2013-8-3,71,64,57,56,54,53,87,74,61,30.15,30.13,30.10,8,7,5,13,4,16,0.00,7,,296
2013-8-4,76,65,54,57,53,52,93,74,54,30.10,30.06,30.01,9,4,0,13,4,17,0.00,6,Fog,306
2013-8-5,67,60,53,53,51,50,93,78,63,30.07,30.04,30.02,7,3,0,12,4,21,0.00,6,Fog,286
2013-8-6,70,62,53,55,52,50,93,76,59,30.04,30.02,29.99,10,6,1,13,5,16,0.00,5,,289
2013-8-7,76,65,54,57,53,50,93,70,46,30.07,30.03,30.00,10,4,0,13,4,16,0.00,6,Fog,310
2013-8-8,73,66,58,57,56,55,93,75,57,30.07,30.05,30.01,10,4,0,14,6,22,0.00,7,Fog,320
2013-8-9,70,64,57,57,55,53,93,77,61,30.01,29.96,29.91,10,6,1,10,4,14,0.00,6,,299
2013-8-10,64,61,57,56,54,53,93,83,72,30.08,30.01,29.95,8,4,1,8,3,10,0.01,8,Rain,244
2013-8-11,66,60,54,56,54,50,89,78,67,30.09,30.07,30.06,9,8,4,9,2,31,0.01,7,Rain-Thunderstorm,282
2013-8-12,67,60,52,55,51,48,89,76,63,30.10,30.07,30.05,9,6,1,10,3,13,0.00,7,,252
2013-8-13,73,63,52,54,51,48,89,68,47,30.12,30.07,29.94,9,8,1,14,3,16,0.00,4,,268
2013-8-14,70,62,53,61,57,48,93,76,58,29.95,29.93,29.91,9,4,1,15,4,23,0.16,7,Rain,177
2013-8-15,71,64,56,61,59,53,93,77,61,30.00,29.96,29.93,10,6,0,8,2,12,0.02,7,Fog-Rain,208
2013-8-16,74,64,54,60,56,52,93,75,57,30.03,30.00,29.97,10,7,0,15,4,17,0.00,7,Fog,198
2013-8-17,72,64,55,61,58,52,90,74,57,30.11,30.06,30.01,10,4,1,13,5,15,0.12,7,Rain,217
2013-8-18,71,63,54,61,56,51,93,73,53,30.16,30.12,30.08,9,6,0,10,4,14,0.06,6,Fog-Rain,219
2013-8-19,72,64,55,61,55,52,86,70,53,30.17,30.14,30.08,8,6,1,14,5,20,0.05,6,Rain,286
2013-8-20,73,62,50,54,50,46,89,67,44,30.20,30.17,30.11,10,5,1,18,5,28,0.00,2,,331
2013-8-21,86,67,48,54,49,44,93,60,27,30.11,30.05,29.96,10,7,0,17,6,22,0.00,1,Fog,8
2013-8-22,83,66,48,58,54,44,90,65,40,29.96,29.90,29.87,10,8,2,15,3,23,0.00,2,,303
2013-8-23,69,65,60,61,58,57,90,82,73,29.90,29.89,29.87,10,5,1,14,4,21,0.32,8,Rain,183
2013-8-24,69,61,52,61,57,47,90,77,63,29.95,29.91,29.89,9,6,1,12,4,15,0.03,7,Rain,222
2013-8-25,72,59,46,54,48,42,89,67,44,29.95,29.93,29.89,10,8,2,12,3,15,0.00,0,,247
2013-8-26,70,60,49,58,53,47,90,74,58,29.91,29.87,29.84,9,6,1,16,7,26,0.17,6,Rain,146
2013-8-27,69,65,60,61,59,55,90,83,76,29.92,29.87,29.81,10,6,1,9,3,13,0.64,7,Rain,100
2013-8-28,71,67,63,63,61,59,93,83,73,29.90,29.86,29.81,10,5,1,15,4,20,0.21,8,Rain,171
2013-8-29,69,66,63,63,61,60,93,87,81,29.99,29.86,29.82,10,4,1,20,8,32,1.09,8,Rain,161
2013-8-30,71,64,56,63,60,54,93,80,66,30.17,30.10,30.00,7,5,1,13,5,23,0.10,6,Rain,203
2013-8-31,80,67,54,60,55,51,93,69,45,30.09,29.98,29.86,10,6,0,13,3,15,0.00,1,Fog,158